Regional Weather Roundup
Issued by NWS

Home | Current Version | Previous Version | Text Only | Print | Product List | Glossary Off
Versions: 1 2 3 4 5 6 7 8 9 10 11 12 13 14 15 16 17 18 19 20 21 22 23 24 25 26 27 28 29 30 31 32 33 34 35 36 37 38 39 40 41 42 43 44 45 46 47 48 49 50

000
ASUS43 KFSD 141510
RWRSD

WEATHER ROUNDUP FOR SOUTH DAKOTA
NATIONAL WEATHER SERVICE SIOUX FALLS SD
900 AM CST THU DEC 14 2017

NOTE: "FAIR" INDICATES FEW OR NO CLOUDS BELOW 12,000 FEET WITH NO
SIGNIFICANT WEATHER AND/OR OBSTRUCTIONS TO VISIBILITY.


SDZ001>005-009-010-012>017-141600-
NORTHWEST AND NORTH CENTRAL SOUTH DAKOTA

CITY           SKY/WX    TMP DP  RH WIND       PRES   REMARKS
BUFFALO          N/A     31  27  85 NW30      30.08R WCI  16
FAITH            N/A     31  30  96 NW25      30.08R WCI  17
MOBRIDGE       CLOUDY    36  29  75 NW20G28   30.02R
$$

SDZ012>016-024>037-041>051-057-063-072>074-141600-
SOUTHWEST AND SOUTH CENTRAL SOUTH DAKOTA

CITY           SKY/WX    TMP DP  RH WIND       PRES   REMARKS
RAPID CTY ARPT CLOUDY    34  24  67 NW30G39   30.13R WCI  20
PIERRE         FLURRIES  34  33  96 NW20      30.05R WCI  23
CUSTER         LGT SNOW  25  17  72 NW8G20    30.06R WCI  16
ELLSWORTH AFB  FLURRIES  33  25  73 NW26G39   30.11R WCI  20
PHILIP         CLOUDY    34  34 100 NW18G30   30.11R WCI  23
PINE RIDGE     CLOUDY    34  27  75 N14G23    30.13R WCI  25
SPEARFISH      MIX PCPN  28  23  80 NW25      30.18R WCI  14
WINNER         LGT SNOW  35  33  92 NW12      30.05R FOG     WCI  27
$$

SDZ004>011-016>023-039-040-141600-
NORTHEAST SOUTH DAKOTA

CITY           SKY/WX    TMP DP  RH WIND       PRES   REMARKS
ABERDEEN       CLOUDY    29  28  96 W3        30.02R
WATERTOWN      FLURRIES  28  27  96 CALM      29.98R
BROOKINGS      CLOUDY    27  25  92 CALM      30.00R
SISSETON         N/A     22  19  89 SE3       30.02R
$$

SDZ017-020-022-023-036>040-048>070-141600-
SOUTHEAST SOUTH DAKOTA

CITY           SKY/WX    TMP DP  RH WIND       PRES   REMARKS
SIOUX FALLS    CLOUDY    30  27  88 S5        30.01S WCI  25
HURON          LGT SNOW  30  27  88 NW7       30.03R FOG     WCI  23
CHAMBERLAIN    CLOUDY    33  33 100 W3        30.04R
MITCHELL       CLOUDY    31  26  82 W7        30.04R WCI  24
YANKTON        CLEAR     28  24  85 W6        30.04  WCI  22
$$

ABBREVIATIONS USED IN REMARKS
   TC - TEMPERATURE IN CELSIUS
  WCI - WIND CHILL INDEX
   HX - HEAT INDEX
  VSB - VISIBILITY




USA.gov is the U.S. government's official web portal to all federal, state and local government web resources and services.